| time (UTC) | temp F | wind direction | speed MPH | gust MPH | rain 1hr in | rain 24hr in | rain mn in | humidity % | barometer mb |
| 20260507010040 | 72 | 49 | 1.0 | 6.0 | 0.00 | 0.00 | 0.00 | 91 | 1009.8 |
| 20260507004516 | 73 | 208 | 0.0 | 0.0 | 0.00 | 0.00 | 0.00 | 92 | 1009.1 |
| 20260507003021 | 73 | 208 | 0.0 | 0.0 | 0.00 | 0.00 | 0.00 | 92 | 1009.8 |
| 20260507001615 | 73 | 208 | 0.0 | 0.0 | 0.00 | 0.00 | 0.00 | 92 | 1009.5 |
| 20260507000057 | 73 | 208 | 0.0 | 1.0 | 0.00 | 0.00 | 0.00 | 92 | 1009.4 |
| 20260506234557 | 73 | 208 | 0.0 | 0.0 | 0.00 | 0.00 | 0.00 | 92 | 1009.0 |
| 20260506233038 | 73 | 208 | 0.0 | 4.0 | 0.00 | 0.00 | 0.00 | 92 | 1009.7 |
| 20260506231542 | 73 | 198 | 0.0 | 4.0 | 0.00 | 0.00 | 0.00 | 91 | 1010.1 |
| 20260506230019 | 73 | 211 | 0.0 | 5.0 | 0.00 | 0.00 | 0.00 | 91 | 1009.8 |
| 20260506224521 | 74 | 195 | 1.0 | 7.0 | 0.00 | 0.00 | 0.00 | 90 | 1010.0 |
| 20260506223100 | 74 | 192 | 0.0 | 6.0 | 0.00 | 0.00 | 0.00 | 91 | 1009.5 |
| 20260506221559 | 74 | 190 | 0.0 | 4.0 | 0.00 | 0.00 | 0.00 | 91 | 1009.9 |
| 20260506220041 | 73 | 186 | 0.0 | 5.0 | 0.00 | 0.00 | 0.00 | 91 | 1010.0 |
| 20260506214554 | 73 | 202 | 0.0 | 4.0 | 0.00 | 0.00 | 0.00 | 90 | 1009.8 |
| 20260506213021 | 74 | 190 | 0.0 | 5.0 | 0.00 | 0.00 | 0.00 | 89 | 1009.7 |
| 20260506211518 | 74 | 220 | 0.0 | 7.0 | 0.00 | 0.00 | 0.00 | 87 | 1009.8 |
| 20260506210058 | 75 | 223 | 0.0 | 8.0 | 0.00 | 0.00 | 0.00 | 85 | 1009.9 |
| 20260506210004 | 75 | 223 | 1.0 | 8.0 | 0.00 | 0.00 | 0.00 | 85 | 1009.9 |
| 20260506204617 | 75 | 189 | 3.0 | 11.0 | 0.00 | 0.00 | 0.00 | 84 | 1010.0 |
| 20260506203037 | 75 | 205 | 1.0 | 7.0 | 0.00 | 0.00 | 0.00 | 84 | 1010.1 |
| 20260506201537 | 76 | 193 | 0.0 | 9.0 | 0.00 | 0.00 | 0.00 | 84 | 1010.3 |
| 20260506200016 | 75 | 213 | 0.0 | 9.0 | 0.00 | 0.00 | 0.00 | 85 | 1010.4 |
| 20260506194514 | 75 | 213 | 1.0 | 6.0 | 0.00 | 0.00 | 0.00 | 84 | 1010.9 |
| 20260506193058 | 75 | 269 | 0.0 | 6.0 | 0.00 | 0.00 | 0.00 | 84 | 1011.2 |
| 20260506191553 | 75 | 215 | 0.0 | 8.0 | 0.00 | 0.00 | 0.00 | 84 | 1011.4 |
| 20260506190033 | 75 | 332 | 0.0 | 4.0 | 0.00 | 0.00 | 0.00 | 84 | 1011.5 |
| 20260506184533 | 75 | 167 | 1.0 | 9.0 | 0.00 | 0.00 | 0.00 | 83 | 1011.7 |
| 20260506183015 | 75 | 236 | 0.0 | 5.0 | 0.00 | 0.00 | 0.00 | 83 | 1011.7 |
| 20260506181515 | 75 | 227 | 0.0 | 10.0 | 0.00 | 0.00 | 0.00 | 82 | 1011.9 |
| 20260506180058 | 75 | 215 | 1.0 | 5.0 | 0.00 | 0.00 | 0.00 | 82 | 1011.9 |
| 20260506174555 | 76 | 165 | 1.0 | 7.0 | 0.00 | 0.00 | 0.00 | 81 | 1011.9 |
| 20260506173041 | 77 | 192 | 1.0 | 7.0 | 0.00 | 0.00 | 0.00 | 80 | 1011.9 |
| 20260506171550 | 76 | 203 | 0.0 | 6.0 | 0.00 | 0.00 | 0.00 | 80 | 1012.0 |
| 20260506170016 | 76 | 221 | 1.0 | 7.0 | 0.00 | 0.00 | 0.00 | 81 | 1011.8 |
| 20260506164518 | 76 | 198 | 1.0 | 6.0 | 0.00 | 0.00 | 0.00 | 81 | 1011.9 |
| 20260506163105 | 76 | 197 | 2.0 | 8.0 | 0.00 | 0.00 | 0.00 | 80 | 1012.1 |
| 20260506161606 | 76 | 180 | 2.0 | 7.0 | 0.00 | 0.00 | 0.00 | 79 | 1012.1 |
| 20260506160041 | 75 | 191 | 0.0 | 5.0 | 0.00 | 0.00 | 0.00 | 81 | 1012.0 |
| 20260506154536 | 75 | 223 | 2.0 | 9.0 | 0.00 | 0.00 | 0.00 | 80 | 1012.1 |
| 20260506153020 | 75 | 202 | 0.0 | 6.0 | 0.00 | 0.00 | 0.00 | 82 | 1012.1 |
| 20260506151529 | 73 | 217 | 0.0 | 6.0 | 0.00 | 0.00 | 0.00 | 84 | 1012.1 |
| 20260506150018 | 73 | 194 | 0.0 | 4.0 | 0.00 | 0.00 | 0.00 | 84 | 1012.3 |
| 20260506144517 | 72 | 188 | 1.0 | 7.0 | 0.00 | 0.00 | 0.00 | 84 | 1012.5 |
| 20260506143019 | 72 | 219 | 2.0 | 7.0 | 0.00 | 0.00 | 0.00 | 84 | 1012.5 |
| 20260506141518 | 71 | 221 | 1.0 | 7.0 | 0.00 | 0.00 | 0.00 | 87 | 1012.5 |
| 20260506140022 | 70 | 213 | 3.0 | 8.0 | 0.00 | 0.00 | 0.00 | 87 | 1012.4 |
| 20260506134516 | 69 | 223 | 1.0 | 8.0 | 0.00 | 0.00 | 0.00 | 89 | 1012.3 |
| 20260506133031 | 68 | 191 | 0.0 | 4.0 | 0.00 | 0.00 | 0.00 | 89 | 1012.4 |
| 20260506131517 | 68 | 192 | 0.0 | 7.0 | 0.00 | 0.00 | 0.00 | 90 | 1012.6 |
| 20260506130016 | 67 | 200 | 1.0 | 5.0 | 0.00 | 0.00 | 0.00 | 90 | 1012.6 |
| 20260506124515 | 67 | 207 | 0.0 | 7.0 | 0.00 | 0.00 | 0.00 | 90 | 1012.7 |
| 20260506123013 | 67 | 210 | 2.0 | 5.0 | 0.00 | 0.00 | 0.00 | 90 | 1012.6 |
| 20260506121512 | 67 | 174 | 0.0 | 5.0 | 0.00 | 0.00 | 0.00 | 90 | 1012.5 |
| 20260506120018 | 67 | 185 | 0.0 | 8.0 | 0.00 | 0.00 | 0.00 | 90 | 1012.1 |
| 20260506114513 | 67 | 190 | 0.0 | 6.0 | 0.00 | 0.00 | 0.00 | 90 | 1011.7 |
| 20260506113012 | 67 | 205 | 0.0 | 6.0 | 0.00 | 0.00 | 0.00 | 89 | 1011.6 |
| 20260506111512 | 66 | 178 | 0.0 | 7.0 | 0.00 | 0.00 | 0.00 | 89 | 1011.2 |
| 20260506110012 | 66 | 222 | 0.0 | 3.0 | 0.00 | 0.00 | 0.00 | 89 | 1011.0 |
| 20260506104512 | 67 | 185 | 0.0 | 8.0 | 0.00 | 0.00 | 0.00 | 88 | 1010.9 |
| 20260506103059 | 67 | 193 | 0.0 | 4.0 | 0.00 | 0.00 | 0.00 | 88 | 1010.9 |
| 20260506101556 | 67 | 226 | 0.0 | 4.0 | 0.00 | 0.00 | 0.00 | 87 | 1010.7 |
| 20260506100035 | 67 | 232 | 0.0 | 6.0 | 0.00 | 0.00 | 0.00 | 87 | 1010.4 |
| 20260506094534 | 67 | 183 | 0.0 | 4.0 | 0.00 | 0.00 | 0.00 | 86 | 1010.4 |
| 20260506093017 | 67 | 229 | 0.0 | 3.0 | 0.00 | 0.00 | 0.00 | 86 | 1010.4 |
| 20260506091515 | 67 | 262 | 0.0 | 5.0 | 0.00 | 0.00 | 0.00 | 85 | 1010.3 |
| 20260506090056 | 67 | 146 | 0.0 | 2.0 | 0.00 | 0.00 | 0.00 | 85 | 1010.2 |
| 20260506084556 | 67 | 171 | 0.0 | 5.0 | 0.00 | 0.00 | 0.00 | 84 | 1010.0 |
| 20260506083038 | 67 | 252 | 0.0 | 7.0 | 0.00 | 0.00 | 0.00 | 83 | 1010.1 |
| 20260506081536 | 68 | 239 | 1.0 | 10.0 | 0.00 | 0.00 | 0.00 | 83 | 1009.9 |
| 20260506073057 | 68 | 205 | 0.0 | 8.0 | 0.00 | 0.00 | 0.00 | 81 | 1009.9 |
| 20260506071556 | 68 | 227 | 1.0 | 13.0 | 0.00 | 0.00 | 0.00 | 80 | 1009.9 |
| 20260506061517 | 69 | 258 | 0.0 | 11.0 | 0.00 | 0.00 | 0.00 | 77 | 1010.4 |
| 20260506060104 | 69 | 225 | 1.0 | 7.0 | 0.00 | 0.00 | 0.00 | 77 | 1010.8 |
| 20260506044521 | 70 | 227 | 2.0 | 10.0 | 0.00 | 0.00 | 0.00 | 75 | 1010.8 |
| 20260506043003 | 70 | 258 | 0.0 | 6.0 | 0.00 | 0.00 | 0.00 | 75 | 1010.7 |
| 20260506041502 | 70 | 243 | 1.0 | 11.0 | 0.00 | 0.00 | 0.00 | 74 | 1010.5 |
| 20260506040047 | 70 | 224 | 0.0 | 6.0 | 0.00 | 0.00 | 0.00 | 74 | 1010.6 |
| 20260506034544 | 70 | 230 | 1.0 | 4.0 | 0.00 | 0.00 | 0.00 | 73 | 1010.7 |
| 20260506033026 | 70 | 188 | 1.0 | 6.0 | 0.00 | 0.00 | 0.00 | 72 | 1010.3 |
| 20260506031526 | 70 | 215 | 0.0 | 4.0 | 0.00 | 0.00 | 0.00 | 72 | 1010.6 |
| 20260506030010 | 69 | 238 | 0.0 | 1.0 | 0.00 | 0.00 | 0.00 | 72 | 1010.3 |
| 20260506024508 | 69 | 238 | 0.0 | 1.0 | 0.00 | 0.00 | 0.00 | 72 | 1010.0 |
| 20260506023058 | 69 | 225 | 0.0 | 2.0 | 0.00 | 0.00 | 0.00 | 72 | 1010.3 |
| 20260506021600 | 69 | 185 | 0.0 | 1.0 | 0.00 | 0.00 | 0.00 | 72 | 1010.2 |
| 20260506020034 | 69 | 185 | 0.0 | 0.0 | 0.00 | 0.00 | 0.00 | 71 | 1010.1 |
| 20260506014529 | 69 | 185 | 0.0 | 0.0 | 0.00 | 0.00 | 0.00 | 71 | 1010.2 |
| 20260506013010 | 69 | 185 | 0.0 | 1.0 | 0.00 | 0.00 | 0.00 | 70 | 1010.2 |
| 20260506011509 | 70 | 185 | 0.0 | 0.0 | 0.00 | 0.00 | 0.00 | 69 | 1010.3 |